Flag for U.S.A. Weather past 2 weeks in Los Angeles, California, U.S.A.

Now
80 °F

Clear.


Feels Like: 81 °F
Forecast: 74 / 94 °F
Wind: No wind

Location: Los Angeles / USC Campus Downtown

Current Time: Sep 16, 2014 at 1:24:36 AM

Latest Report: Sep 16, 2014 at 12:47 AM


Visibility: 10 mi

Pressure: 29.75 "Hg

Humidity: 54%

Dew point: 62 °F

Location of Los AngelesLocation

Historic Weather in Los Angeles — Graph

°F

Los Angeles temperature yesterday

Maximum temperature yesterday: 93 °F (at 11:47 AM)
Minimum temperature yesterday: 73 °F (at 6:47 AM)
Average temperature yesterday: 84 °F

Past Weeks' High & Low Weather Summary

 TemperatureHumidityPressure
High97 °F (Sep 14, 12:47 PM)87% (Sep 4, 11:47 PM)29.91 "Hg (Sep 4, 11:47 PM)
Low64 °F (Sep 10, 6:47 AM)26% (Sep 9, 11:47 AM)29.66 "Hg (Sep 14, 5:47 PM)
Average76 °F63%29.79 "Hg
* Reported Aug 31 11:47 PM — Sep 15 11:47 PM, Los Angeles, Weather by CustomWeather, © 2014

Note: Actual official high and low records may vary slightly from our data, if they occured in-between our weather recording intervals... More about our weather records

Advertising

Los Angeles weather history for previous 24 hours

 ConditionsComfort  
Time TempWeatherWind HumidityBarometerVisibility
11:47 PM
Sep 15
81 °FClear.No wind53%29.76 "Hg10 mi
10:47 PM82 °FClear.5 mph51%29.75 "Hg10 mi
9:47 PM83 °FClear.No wind50%29.73 "Hg10 mi
8:47 PM85 °FClear.No wind45%29.72 "Hg10 mi
7:47 PM87 °FSunny.No wind40%29.71 "Hg10 mi
6:47 PM90 °FSunny.No wind34%29.69 "Hg10 mi
5:47 PM92 °FSunny.3 mph31%29.69 "Hg10 mi
4:47 PM93 °FSunny.5 mph30%29.70 "Hg10 mi
3:47 PM93 °FSunny.3 mph29%29.72 "Hg10 mi
2:47 PM93 °FSunny.5 mph30%29.73 "Hg10 mi
1:47 PM92 °FSunny.3 mph32%29.75 "Hg10 mi
12:47 PM91 °FSunny.6 mph41%29.76 "Hg10 mi
11:47 AM93 °FSunny.No wind44%29.77 "Hg10 mi
10:47 AM91 °FSunny.3 mph42%29.78 "Hg10 mi
9:47 AM85 °FSunny.No wind51%29.79 "Hg10 mi
8:47 AM81 °FSunny.No wind62%29.79 "Hg9 mi
7:47 AM75 °FSunny.No wind76%29.79 "Hg9 mi
6:47 AM73 °FClear.No wind79%29.78 "Hg9 mi
5:47 AM74 °FClear.No wind76%29.76 "Hg10 mi
4:47 AM74 °FClear.No wind79%29.75 "Hg10 mi
3:47 AM75 °FClear.No wind74%29.75 "Hg10 mi
2:47 AM76 °FClear.No wind67%29.75 "Hg10 mi
1:47 AM78 °FClear.No wind56%29.75 "Hg10 mi
Weather by CustomWeather, © 2014

See weather overviewHow to use our weather pages